Weather History for Shawano, WI

Change the Weather History Date:

Tuesday, October 9, 2012

  Actual Average (KGRB) Record (KGRB)
Temperature  
Mean Temperature 48 °F 50 °F  
Max Temperature 55 °F 60 °F 81 °F (1905)
Min Temperature 39 °F 40 °F 23 °F (1895)
Degree Days  
Heating Degree Days 17 16  
Month to date heating degree days 127  
Since 1 July heating degree days 397  
Cooling Degree Days 0 0  
Month to date cooling degree days 0  
Year to date cooling degree days 395  
Moisture  
Dew Point 39 °F    
Average Humidity 72    
Maximum Humidity 93    
Minimum Humidity 38    
Precipitation  
Precipitation 0.13 in 0.08 in 1.46 in (1939)
Month to date precipitation 0.75  
Year to date precipitation 24.19  
Snow  
Snow 0.00 in 0.00 in 0.10 in (1925)
Month to date snowfall 0.0  
Since 1 July snowfall 0.0  
Since 1 September snowfall 0.0  
Snow Depth -    
Sea Level Pressure  
Sea Level Pressure 29.76 in    
Wind  
Wind Speed 7 mph (SW)    
Max Wind Speed 17 mph    
Max Gust Speed 25 mph    
Visibility 9 miles    
Events Rain    
T = Trace of Precipitation, MM = Missing Value Source: NWS Daily Summary

Daily Weather History Graph

Daily Weather History Graph

Search for Another Location

Airport:

Trip Planner

Search our weather history database for the weather conditions in past years. The results will help you decide how hot, cold, wet, or windy it might be!

Date:

Astronomy

Oct. 09, 2012 Rise Set
Actual Time 7:02 AM CDT 6:19 PM CDT
Civil Twilight 6:33 AM CDT 6:48 PM CDT
Nautical Twilight 5:59 AM CDT 7:22 PM CDT
Astronomical Twilight 5:25 AM CDT 7:56 PM CDT
Moon 12:24 AM CDT (10/9) 2:59 PM CDT (10/9)
Length of Visible Light 12h 15m
Length of Day
11h 16m
Last Quarter, 36% of the Moon is Illuminated
Oct 9
Last Quarter
Oct 15
New
Oct 21
First Quarter
Oct 29
Full
Nov 6
Last Quarter

Hourly Weather History & Observations

Time (CDT) Temp. Windchill Dew Point Humidity Pressure Visibility Wind Dir Wind Speed Gust Speed Precip Events Conditions
12:15 AM 55.4 °F - 30.2 °F 38% 29.75 in 10.0 mi SSW 10.4 mph 18.4 mph N/A   Mostly Cloudy
12:35 AM 55.4 °F - 30.2 °F 38% 29.75 in 10.0 mi SSW 10.4 mph 18.4 mph N/A   Scattered Clouds
12:55 AM 55.4 °F - 32.0 °F 41% 29.75 in 10.0 mi SSW 9.2 mph - N/A   Clear
1:15 AM 53.6 °F - 32.0 °F 44% 29.75 in 10.0 mi SSW 8.1 mph 16.1 mph N/A   Mostly Cloudy
1:35 AM 53.6 °F - 32.0 °F 44% 29.75 in 10.0 mi SSW 9.2 mph - N/A   Overcast
1:55 AM 53.6 °F - 32.0 °F 44% 29.75 in 10.0 mi SSW 5.8 mph 16.1 mph N/A   Overcast
2:15 AM 55.4 °F - 32.0 °F 41% 29.75 in 10.0 mi SSW 11.5 mph 17.3 mph N/A   Overcast
2:55 AM 55.4 °F - 32.0 °F 41% 29.74 in 10.0 mi SW 9.2 mph 16.1 mph N/A   Overcast
3:15 AM 55.4 °F - 32.0 °F 41% 29.74 in 10.0 mi SW 9.2 mph 18.4 mph N/A   Overcast
3:35 AM 53.6 °F - 35.6 °F 51% 29.75 in 10.0 mi SW 6.9 mph - N/A   Drizzle
3:55 AM 51.8 °F - 37.4 °F 58% 29.75 in 10.0 mi SW 8.1 mph - N/A   Light Drizzle
4:15 AM 51.8 °F - 37.4 °F 58% 29.75 in 10.0 mi SW 8.1 mph - N/A Rain Rain
4:35 AM 51.8 °F - 37.4 °F 58% 29.75 in 10.0 mi SW 8.1 mph - N/A   Overcast
4:55 AM 51.8 °F - 37.4 °F 58% 29.76 in 10.0 mi SW 10.4 mph - N/A Rain Light Rain
5:15 AM 51.8 °F - 37.4 °F 58% 29.75 in 10.0 mi SW 5.8 mph - N/A   Overcast
5:35 AM 51.8 °F - 37.4 °F 58% 29.75 in 10.0 mi SW 5.8 mph - N/A   Overcast
5:55 AM 51.8 °F - 37.4 °F 58% 29.76 in 10.0 mi SW 4.6 mph - N/A   Overcast
6:15 AM 51.8 °F - 37.4 °F 58% 29.77 in 10.0 mi SW 3.5 mph - N/A   Overcast
6:35 AM 51.8 °F - 35.6 °F 54% 29.77 in 10.0 mi SSW 4.6 mph - N/A   Overcast
6:55 AM 51.8 °F - 35.6 °F 54% 29.77 in 10.0 mi Calm Calm - N/A   Overcast
7:15 AM 51.8 °F - 35.6 °F 54% 29.77 in 10.0 mi Calm Calm - N/A   Overcast
7:35 AM 51.8 °F - 37.4 °F 58% 29.77 in 10.0 mi SSW 4.6 mph - N/A   Overcast
7:55 AM 51.8 °F - 37.4 °F 58% 29.77 in 10.0 mi SSW 3.5 mph - N/A   Light Drizzle
8:15 AM 50.0 °F - 39.2 °F 66% 29.77 in 10.0 mi South 3.5 mph - N/A   Light Drizzle
8:35 AM 50.0 °F - 39.2 °F 66% 29.77 in 10.0 mi South 4.6 mph - N/A   Light Drizzle
8:55 AM 50.0 °F - 39.2 °F 66% 29.77 in 10.0 mi South 6.9 mph - N/A   Light Drizzle
9:15 AM 50.0 °F - 41.0 °F 71% 29.77 in 10.0 mi SSW 6.9 mph - N/A   Mostly Cloudy
9:35 AM 50.0 °F - 41.0 °F 71% 29.77 in 10.0 mi SSW 5.8 mph - N/A   Overcast
9:55 AM 50.0 °F - 41.0 °F 71% 29.77 in 10.0 mi South 5.8 mph - N/A   Overcast
10:15 AM 50.0 °F - 41.0 °F 71% 29.77 in 10.0 mi SSW 5.8 mph - N/A   Overcast
10:35 AM 50.0 °F - 41.0 °F 71% 29.76 in 10.0 mi SSW 4.6 mph - N/A   Overcast
10:55 AM 50.0 °F - 41.0 °F 71% 29.75 in 10.0 mi SSW 9.2 mph - N/A   Overcast
11:15 AM 51.8 °F - 41.0 °F 67% 29.75 in 10.0 mi SW 5.8 mph - N/A   Overcast
11:55 AM 50.0 °F - 41.0 °F 71% 29.74 in 10.0 mi SSW 9.2 mph - N/A   Overcast
12:15 PM 48.2 °F - 42.8 °F 82% 29.73 in 7.0 mi SW 4.6 mph - N/A   Drizzle
12:35 PM 46.4 °F 42.9 °F 44.6 °F 93% 29.72 in 4.0 mi SW 6.9 mph - N/A Rain Rain
12:55 PM 46.4 °F 44.3 °F 44.6 °F 93% 29.71 in 5.0 mi SSW 4.6 mph - 0.01 in   Drizzle
1:15 PM 46.4 °F 42.9 °F 44.6 °F 93% 29.72 in 7.0 mi SW 6.9 mph - N/A   Drizzle
1:35 PM 48.2 °F - 44.6 °F 87% 29.72 in 7.0 mi SW 6.9 mph - 0.02 in Rain Light Rain
1:55 PM 48.2 °F - 46.4 °F 93% 29.71 in 7.0 mi SW 6.9 mph - 0.02 in   Drizzle
2:15 PM 50.0 °F - 46.4 °F 87% 29.71 in 7.0 mi SSW 5.8 mph - 0.02 in Rain Light Rain
2:35 PM 50.0 °F - 46.4 °F 87% 29.71 in 7.0 mi SSW 5.8 mph - 0.02 in   Light Drizzle
2:55 PM 50.0 °F - 46.4 °F 87% 29.71 in 5.0 mi SSW 3.5 mph - 0.04 in   Drizzle
3:15 PM 48.2 °F - 46.4 °F 93% 29.73 in 4.0 mi West 17.3 mph 25.3 mph 0.02 in Rain Rain
3:35 PM 46.4 °F 41.1 °F 42.8 °F 87% 29.74 in 5.0 mi West 11.5 mph 20.7 mph 0.04 in Rain Rain
3:55 PM 44.6 °F 40.2 °F 42.8 °F 93% 29.75 in 5.0 mi West 8.1 mph - 0.04 in Rain Rain
4:15 PM 44.6 °F 39.2 °F 41.0 °F 87% 29.77 in 7.0 mi WNW 10.4 mph 16.1 mph 0.02 in   Drizzle
4:35 PM 42.8 °F 36.6 °F 39.2 °F 87% 29.77 in 7.0 mi West 11.5 mph 19.6 mph 0.02 in   Drizzle
4:55 PM 42.8 °F 38.0 °F 37.4 °F 81% 29.78 in 10.0 mi West 8.1 mph 17.3 mph 0.02 in   Light Drizzle
5:15 PM 42.8 °F 40.1 °F 39.2 °F 87% 29.77 in 10.0 mi WSW 4.6 mph - N/A   Overcast
5:35 PM 42.8 °F 40.1 °F 39.2 °F 87% 29.77 in 10.0 mi WSW 4.6 mph - N/A   Mostly Cloudy
5:55 PM 42.8 °F 38.6 °F 39.2 °F 87% 29.78 in 10.0 mi SW 6.9 mph - N/A   Scattered Clouds
6:15 PM 42.8 °F 40.1 °F 39.2 °F 87% 29.78 in 10.0 mi SW 4.6 mph - N/A   Scattered Clouds
6:35 PM 42.8 °F 38.6 °F 39.2 °F 87% 29.78 in 10.0 mi SW 6.9 mph - N/A   Clear
6:55 PM 41.0 °F 37.1 °F 39.2 °F 93% 29.79 in 10.0 mi SW 5.8 mph - N/A   Clear
7:15 PM 41.0 °F 38.0 °F 39.2 °F 93% 29.79 in 10.0 mi SW 4.6 mph - N/A   Clear
7:35 PM 41.0 °F 38.0 °F 39.2 °F 93% 29.79 in 10.0 mi SW 4.6 mph - N/A   Mostly Cloudy
7:55 PM 42.8 °F 38.6 °F 39.2 °F 87% 29.79 in 10.0 mi SW 6.9 mph - N/A   Overcast
8:15 PM 42.8 °F 38.6 °F 37.4 °F 81% 29.79 in 10.0 mi SW 6.9 mph - N/A   Overcast
8:35 PM 42.8 °F 38.0 °F 37.4 °F 81% 29.79 in 10.0 mi SW 8.1 mph - N/A   Overcast
8:55 PM 42.8 °F 38.0 °F 39.2 °F 87% 29.79 in 10.0 mi WSW 8.1 mph - N/A   Overcast
9:15 PM 42.8 °F 37.5 °F 39.2 °F 87% 29.79 in 10.0 mi WSW 9.2 mph - N/A   Overcast
9:35 PM 42.8 °F 38.0 °F 37.4 °F 81% 29.79 in 10.0 mi WSW 8.1 mph - N/A   Overcast
9:55 PM 41.0 °F 36.4 °F 37.4 °F 87% 29.79 in 10.0 mi WSW 6.9 mph - N/A   Scattered Clouds
10:15 PM 41.0 °F 37.1 °F 37.4 °F 87% 29.80 in 10.0 mi WSW 5.8 mph - N/A   Scattered Clouds
10:35 PM 41.0 °F 37.1 °F 37.4 °F 87% 29.80 in 10.0 mi WSW 5.8 mph - N/A   Clear
10:55 PM 41.0 °F 38.0 °F 37.4 °F 87% 29.79 in 10.0 mi WSW 4.6 mph - N/A   Clear
11:15 PM 41.0 °F 38.0 °F 35.6 °F 81% 29.80 in 10.0 mi WSW 4.6 mph - N/A   Clear
11:35 PM 41.0 °F 38.0 °F 35.6 °F 81% 29.80 in 10.0 mi WSW 4.6 mph - N/A   Clear
11:55 PM 39.2 °F 35.9 °F 35.6 °F 87% 29.80 in 10.0 mi West 4.6 mph - N/A   Clear